Vorticity
26 46 -11 7 -20 57 24 -11 25 46 17 11 6 6 4 6 7 6 -0 -0 2 3
27 25 22 -10 -11 40 30 35 17 13 32 7 8 5 11 5 3 -4 3 6 3 1
15 28 18 35 -17 -8 6 16 9 -3 47 3 10 11 6 -1 7 9 6 7 4 -5
6 26 28 31 19 7 34 11 27 17 46 37 32 9 17 5 -7 6 5 17 57 17
14 31 7 -5 74 41 -16 17 -3 34 -6 27 16 9 36 24 37 28 31 23 1 11
-3 31 14 18 56 -10 8 6 -2 17 28 -5 -3 2 21 28 21 25 35 -2 -11 -0
-5 28 7 31 27 -8 4 1 12 11 13 27 -11 2 13 -11 3 4 -2 7 16 13
14 19 12 16 22 25 19 13 17 5 -1 -6 13 11 -6 -12 -12 1 12 14 13 10
17 11 4 9 6 12 5 -9 3 24 20 19 12 22 6 16 5 -7 4 2 10 15
17 -3 13 11 -8 -1 -8 21 18 15 9 -0 7 18 -30 7 6 10 5 8 13 12
9 -4 -19 6 29 8 16 10 7 1 2 -0 -3 6 15 5 5 5 14 11 6 4
12 34 27 -7 35 13 10 -3 -2 24 14 4 6 2 9 11 8 12 7 6 5 6
-6 19 -18 43 -3 11 -0 2 20 -1 0 -22 1 8 12 21 16 5 4 7 8 7
11 10 6 27 4 -4 -3 12 -4 20 15 1 3 27 9 4 5 7 7 6 5 6
Height
5623 5631 5639 5651 5663 5671 5677 5682 5688 5692 5696 5700 5706 5712 5716 5721 5724 5726 5727 5728 5726 5727
5616 5621 5628 5641 5653 5656 5664 5672 5679 5682 5685 5687 5693 5700 5704 5708 5710 5712 5714 5714 5715 5716
5610 5618 5627 5639 5645 5652 5652 5660 5668 5673 5675 5677 5682 5687 5692 5695 5699 5702 5704 5705 5707 5710
5607 5611 5620 5629 5637 5645 5647 5655 5661 5667 5671 5676 5678 5682 5686 5687 5689 5693 5698 5700 5699 5698
5603 5607 5616 5622 5633 5639 5643 5646 5654 5664 5669 5673 5676 5681 5680 5681 5683 5688 5689 5689 5689 5687
5599 5606 5613 5619 5625 5632 5638 5644 5655 5658 5662 5667 5670 5673 5670 5673 5676 5678 5679 5680 5680 5679
5595 5602 5610 5613 5621 5628 5634 5641 5646 5649 5656 5660 5661 5663 5667 5668 5669 5671 5673 5672 5671 5671
5594 5600 5605 5610 5619 5624 5629 5634 5639 5643 5651 5656 5655 5657 5660 5663 5664 5665 5666 5665 5664 5662
5595 5600 5604 5610 5617 5620 5625 5629 5634 5639 5642 5647 5650 5651 5652 5654 5655 5656 5656 5655 5654 5653
5592 5597 5603 5607 5611 5617 5621 5625 5629 5632 5636 5640 5644 5646 5648 5648 5646 5646 5646 5645 5645 5644
5589 5595 5602 5604 5607 5610 5616 5620 5624 5629 5632 5635 5638 5641 5642 5642 5641 5639 5638 5637 5636 5635
5588 5593 5598 5602 5606 5609 5614 5618 5622 5626 5630 5632 5635 5635 5636 5635 5632 5631 5631 5630 5629 5626
5589 5592 5597 5600 5604 5607 5611 5616 5619 5622 5624 5626 5628 5628 5627 5628 5625 5625 5625 5623 5622 5619
5589 5592 5595 5598 5603 5606 5610 5613 5616 5617 5619 5619 5620 5622 5621 5620 5620 5620 5616 5614 5611 5606